Hourly Weather Malanje

Today, 29 September, Tuesday

Time Temperature Precipitation Wind Pressure Humidity
00:00 +20°C° 0 mm 2 mps 665 mmHg 75%
01:00 +20°C° 0 mm 2 mps 664 mmHg 79%
02:00 +19°C° 0 mm 2 mps 664 mmHg 81%
03:00 +19°C° 0 mm 2 mps 664 mmHg 83%
04:00 +19°C° 0 mm 2 mps 664 mmHg 86%
05:00 +19°C° 0 mm 2 mps 664 mmHg 86%
06:00 +19°C° 0 mm 2 mps 665 mmHg 86%
07:00 +20°C° 0 mm 2 mps 666 mmHg 84%
08:00 +24°C° 0 mm 2 mps 666 mmHg 72%
09:00 +26°C° 0 mm 2 mps 667 mmHg 61%
10:00 +29°C° 0 mm 2 mps 667 mmHg 49%
11:00 +31°C° 0 mm 2 mps 667 mmHg 43%
12:00 +34°C° 0 mm 1 mps 666 mmHg 37%
13:00 +35°C° 0 mm 1 mps 666 mmHg 32%
14:00 +34°C° 0 mm 1 mps 665 mmHg 34%
15:00 +34°C° 0 mm 2 mps 664 mmHg 36%
16:00 +33°C° 0 mm 3 mps 663 mmHg 38%
17:00 +30°C° 0.2 mm 3 mps 664 mmHg 45%
18:00 +28°C° 0.2 mm 3 mps 665 mmHg 52%
19:00 +26°C° 0.2 mm 4 mps 665 mmHg 59%
20:00 +25°C° 0.5 mm 3 mps 665 mmHg 66%
21:00 +24°C° 0.5 mm 2 mps 666 mmHg 72%
22:00 +23°C° 0.5 mm 1 mps 666 mmHg 79%
23:00 +22°C° 0.1 mm 1 mps 665 mmHg 81%

Tomorrow, 30 September, Wednesday

Time Temperature Precipitation Wind Pressure Humidity
00:00 +22°C° 0.1 mm 1 mps 665 mmHg 83%
01:00 +22°C° 0.1 mm 1 mps 665 mmHg 85%
02:00 +21°C° 0.2 mm 1 mps 665 mmHg 87%
03:00 +20°C° 0.2 mm 2 mps 664 mmHg 89%
04:00 +20°C° 0.2 mm 2 mps 664 mmHg 90%
05:00 +20°C° 0 mm 2 mps 664 mmHg 89%
06:00 +20°C° 0 mm 2 mps 665 mmHg 88%
07:00 +20°C° 0 mm 2 mps 665 mmHg 87%
08:00 +22°C° 0 mm 1 mps 666 mmHg 79%
09:00 +24°C° 0 mm 1 mps 666 mmHg 72%
10:00 +26°C° 0 mm 1 mps 666 mmHg 64%
11:00 +27°C° 0 mm 1 mps 666 mmHg 59%
12:00 +29°C° 0 mm 1 mps 666 mmHg 54%
13:00 +31°C° 0 mm 2 mps 666 mmHg 48%
14:00 +29°C° 1.6 mm 2 mps 665 mmHg 55%
15:00 +27°C° 1.6 mm 3 mps 664 mmHg 61%
16:00 +26°C° 1.6 mm 3 mps 663 mmHg 68%
17:00 +25°C° 0.4 mm 3 mps 663 mmHg 73%
18:00 +24°C° 0.4 mm 3 mps 664 mmHg 78%
19:00 +23°C° 0.4 mm 2 mps 664 mmHg 82%
20:00 +21°C° 0.1 mm 2 mps 665 mmHg 84%
21:00 +22°C° 0.1 mm 1 mps 665 mmHg 85%
22:00 +22°C° 0.1 mm 1 mps 665 mmHg 87%
23:00 +21°C° 0 mm 1 mps 665 mmHg 87%

Day after tomorrow, 1 October, Thursday

Time Temperature Precipitation Wind Pressure Humidity
00:00 +21°C° 0 mm 1 mps 664 mmHg 87%
01:00 +20°C° 0 mm 2 mps 664 mmHg 88%
02:00 +20°C° 0 mm 1 mps 664 mmHg 90%
03:00 +20°C° 0 mm 1 mps 663 mmHg 92%
04:00 +19°C° 0 mm 1 mps 663 mmHg 95%
05:00 +20°C° 0 mm 1 mps 664 mmHg 92%
06:00 +20°C° 0 mm 1 mps 664 mmHg 89%
07:00 +21°C° 0 mm 1 mps 665 mmHg 85%
08:00 +24°C° 0 mm 1 mps 666 mmHg 74%
09:00 +27°C° 0 mm 1 mps 666 mmHg 63%
10:00 +30°C° 0 mm 1 mps 666 mmHg 52%
11:00 +31°C° 0 mm 1 mps 666 mmHg 46%
12:00 +33°C° 0 mm 1 mps 665 mmHg 40%
13:00 +35°C° 0 mm 1 mps 665 mmHg 34%
14:00 +34°C° 0 mm 1 mps 664 mmHg 35%
15:00 +33°C° 0 mm 1 mps 663 mmHg 36%
16:00 +32°C° 0 mm 1 mps 663 mmHg 37%
17:00 +30°C° 0.1 mm 2 mps 663 mmHg 45%
18:00 +28°C° 0.1 mm 2 mps 663 mmHg 53%
19:00 +26°C° 0.1 mm 2 mps 663 mmHg 61%
20:00 +25°C° 0.2 mm 3 mps 663 mmHg 66%
21:00 +24°C° 0.2 mm 3 mps 664 mmHg 70%
22:00 +22°C° 0.2 mm 3 mps 664 mmHg 74%
23:00 +21°C° 0 mm 3 mps 664 mmHg 78%

2 October, Friday

Time Temperature Precipitation Wind Pressure Humidity
00:00 +21°C° 0 mm 3 mps 664 mmHg 83%
01:00 +20°C° 0 mm 3 mps 664 mmHg 87%
02:00 +20°C° 0 mm 3 mps 663 mmHg 88%
03:00 +19°C° 0 mm 3 mps 663 mmHg 89%
04:00 +19°C° 0 mm 2 mps 663 mmHg 90%
05:00 +19°C° 0 mm 2 mps 664 mmHg 88%
06:00 +19°C° 0 mm 2 mps 664 mmHg 86%
07:00 +20°C° 0 mm 2 mps 665 mmHg 85%
08:00 +23°C° 0 mm 2 mps 666 mmHg 74%
09:00 +26°C° 0 mm 2 mps 666 mmHg 64%
10:00 +29°C° 0 mm 2 mps 667 mmHg 53%
11:00 +31°C° 0 mm 1 mps 666 mmHg 47%
12:00 +33°C° 0 mm 1 mps 666 mmHg 42%
13:00 +35°C° 0 mm 1 mps 666 mmHg 36%
14:00 +34°C° 0 mm 1 mps 665 mmHg 37%
15:00 +33°C° 0 mm 1 mps 664 mmHg 38%
16:00 +32°C° 0 mm 1 mps 664 mmHg 39%
17:00 +29°C° 0.4 mm 2 mps 664 mmHg 49%
18:00 +27°C° 0.4 mm 2 mps 664 mmHg 60%
19:00 +24°C° 0.4 mm 3 mps 664 mmHg 70%
20:00 +24°C° 0.1 mm 2 mps 664 mmHg 72%
21:00 +23°C° 0.1 mm 2 mps 665 mmHg 74%
22:00 +23°C° 0.1 mm 1 mps 665 mmHg 76%
23:00 +22°C° 0.1 mm 1 mps 665 mmHg 79%

3 October, Saturday

Time Temperature Precipitation Wind Pressure Humidity
00:00 +21°C° 0.1 mm 2 mps 664 mmHg 81%
01:00 +20°C° 0.1 mm 2 mps 664 mmHg 83%
02:00 +20°C° 0 mm 2 mps 664 mmHg 85%
03:00 +19°C° 0 mm 2 mps 664 mmHg 87%
04:00 +20°C° 0 mm 1 mps 664 mmHg 89%
05:00 +20°C° 0 mm 1 mps 664 mmHg 86%
06:00 +21°C° 0 mm 1 mps 665 mmHg 84%
07:00 +20°C° 0 mm 2 mps 665 mmHg 82%
08:00 +24°C° 0 mm 2 mps 666 mmHg 72%
09:00 +27°C° 0 mm 2 mps 666 mmHg 61%
10:00 +29°C° 0 mm 2 mps 667 mmHg 50%
11:00 +31°C° 0 mm 2 mps 667 mmHg 45%
12:00 +33°C° 0 mm 1 mps 666 mmHg 39%
13:00 +36°C° 0 mm 1 mps 666 mmHg 33%
14:00 +34°C° 0 mm 1 mps 665 mmHg 35%
15:00 +33°C° 0 mm 1 mps 664 mmHg 37%
16:00 +32°C° 0 mm 1 mps 664 mmHg 38%
17:00 +30°C° 0.1 mm 2 mps 664 mmHg 45%
18:00 +28°C° 0.1 mm 2 mps 664 mmHg 52%
19:00 +26°C° 0.1 mm 2 mps 664 mmHg 59%
20:00 +25°C° 0.4 mm 2 mps 665 mmHg 65%
21:00 +24°C° 0.4 mm 1 mps 665 mmHg 72%
22:00 +23°C° 0.4 mm 1 mps 665 mmHg 78%
23:00 +23°C° 0.2 mm 1 mps 665 mmHg 79%

4 October, Sunday

Time Temperature Precipitation Wind Pressure Humidity
00:00 +23°C° 0.2 mm 1 mps 665 mmHg 79%
01:00 +22°C° 0.2 mm 1 mps 664 mmHg 80%
02:00 +21°C° 0.3 mm 2 mps 664 mmHg 83%
03:00 +20°C° 0.3 mm 2 mps 664 mmHg 86%
04:00 +19°C° 0.3 mm 2 mps 664 mmHg 89%
05:00 +19°C° 0.1 mm 2 mps 664 mmHg 88%
06:00 +19°C° 0.1 mm 2 mps 665 mmHg 88%
07:00 +19°C° 0.1 mm 2 mps 665 mmHg 88%
08:00 +23°C° 0 mm 2 mps 666 mmHg 76%
09:00 +26°C° 0 mm 1 mps 667 mmHg 65%
10:00 +29°C° 0 mm 1 mps 668 mmHg 53%
11:00 +30°C° 0 mm 1 mps 667 mmHg 50%
12:00 +30°C° 0 mm 2 mps 666 mmHg 47%
13:00 +31°C° 0 mm 2 mps 666 mmHg 43%
14:00 +31°C° 0 mm 2 mps 665 mmHg 43%
15:00 +31°C° 0 mm 2 mps 665 mmHg 42%
16:00 +31°C° 0 mm 2 mps 664 mmHg 41%
17:00 +29°C° 0 mm 2 mps 665 mmHg 47%
18:00 +27°C° 0 mm 2 mps 665 mmHg 54%
19:00 +25°C° 0 mm 2 mps 665 mmHg 60%
20:00 +25°C° 0.1 mm 2 mps 665 mmHg 62%
21:00 +24°C° 0.1 mm 2 mps 666 mmHg 64%
22:00 +23°C° 0.1 mm 2 mps 666 mmHg 66%
23:00 +23°C° 0 mm 1 mps 665 mmHg 67%
Show more

We Need Your Consent

Meteoprog and our Service Providers may store and access personal data such as cookies, device identifiers or other similar technologies on your device and process such data to personalise content and ads, as well as provide social media features and to analyse the traffic.

  • Store and/or access information on your device

    Cookies, device identifiers or other information can be stored or accessed on your device for the purposes indicated above.

  • Personalised ads and content, ad and content measurement, audience insights, and products development

    Ads and content can be personalised based on a profile. More data can be added to better personalise ads and content. Ad and content performance can be measured. Insights about the audience who saw the ads and content can be derived. Such data can be used to develop or improve user’s experience, systems and software.

By clicking ‘I Agree’ you will allow the use of indicated cookies, device identifiers, web beacons or other similar technologies. Your settings can be changed in the browser on your device.

For certain purposes, legitimate interests may be relied on, rather than consent. You can read more about this in our Privacy and Cookie Policy.